Vertical_Velocity
2 2 2 2 2 2 1 2 3 3 3 2 2 2 2 2 2 1 1 1 0 0 -0 -0 -0 -0 0 -0 -1 -1 -1 -1 -0 0 1 1 2 3 4 4 4 4 4 4 4 3 3 1 -0 -1 -2 -3 -3 -3 -2 -2 -1 -0 0 1 1 1 1 1 1 1 1 1 1 1 1 1 1 1 1 1 -0 -1 -2 -2 -3 -4 -4 -4 -3 -3
1 1 1 1 1 1 1 2 3 3 3 2 2 2 1 1 1 1 0 0 0 -0 -0 -0 -0 0 0 -0 -0 -0 0 1 1 2 2 3 3 3 3 3 3 3 2 1 0 -1 -2 -3 -4 -4 -4 -3 -2 -2 -1 -0 0 1 1 1 1 1 1 1 1 1 1 0 0 0 0 0 0 0 0 0 -0 -1 -1 -2 -3 -3 -4 -4 -4 -4
1 1 1 2 2 2 2 2 2 2 1 1 1 0 0 0 0 0 0 -0 -0 -0 -0 -0 0 0 1 1 1 1 1 2 2 2 1 1 1 0 0 0 0 0 -0 -2 -3 -5 -5 -5 -4 -3 -2 -1 -1 -0 0 1 1 1 1 1 1 1 1 1 1 0 0 -0 -0 0 0 0 1 1 0 0 0 0 0 -0 -1 -1 -1 -2 -2 -3
1 1 2 2 2 2 2 1 1 0 -0 -0 -0 -0 -0 -0 0 0 0 0 -0 -0 -0 0 1 1 1 1 1 1 1 1 0 -0 -1 -1 -1 -1 -1 -0 -1 -2 -3 -5 -6 -6 -5 -4 -2 -1 -0 0 0 1 1 1 1 1 1 1 1 1 1 1 0 0 0 -0 0 0 0 1 1 1 1 1 1 1 1 1 1 1 1 0 -0 -1
1 0 1 1 1 1 0 -0 -1 -1 -1 -0 -0 -0 -0 0 0 1 1 0 0 0 0 0 0 0 -0 -0 -0 -0 -0 -0 -0 -1 -1 -1 -0 -0 -0 -1 -3 -4 -6 -6 -5 -4 -2 -1 0 1 1 1 1 1 0 0 0 0 0 0 0 0 0 0 0 0 0 0 0 0 0 1 1 1 1 1 1 1 1 1 1 1 2 1 1 1
-0 -0 0 0 0 -0 -1 -1 -1 -1 -1 -0 -0 0 0 0 0 0 0 0 -0 -0 -1 -1 -1 -1 -2 -2 -1 -1 -1 -0 -0 -0 -0 -0 -1 -2 -3 -4 -5 -6 -5 -4 -2 -1 0 1 1 1 1 0 -0 -0 -0 -1 -1 -0 -0 -0 0 0 0 0 0 0 0 -0 -0 -0 0 0 0 0 0 0 -0 -0 -0 -0 0 0 1 1 1 1
-1 -0 -0 0 0 -0 -2 -2 -3 -3 -3 -3 -2 -1 -0 0 0 0 0 0 -0 -1 -1 -1 -1 -1 -2 -2 -1 -1 -1 -1 -1 -1 -2 -3 -4 -4 -5 -5 -5 -4 -3 -1 -0 0 1 1 0 0 -0 -0 -1 -1 -1 -1 -1 -0 -0 -0 -0 0 0 -0 -0 -0 -1 -1 -1 -1 -1 -1 -1 -1 -1 -1 -1 -1 -1 -1 -1 -1 -1 -0 -0 -0
-0 1 1 1 1 -0 -1 -2 -3 -4 -5 -4 -2 -1 0 1 1 1 1 0 0 -0 -1 -1 -1 -1 -1 -1 -1 -1 -1 -2 -2 -3 -3 -4 -4 -4 -4 -3 -2 -1 -0 0 1 1 1 0 0 -0 -0 -0 -0 -0 -1 -0 -0 -0 -0 -0 -0 -1 -1 -1 -1 -1 -1 -2 -2 -1 -1 -1 -1 -1 -1 -2 -2 -2 -2 -2 -2 -1 -1 -1 -1 -1
0 1 1 1 1 0 0 0 0 0 -1 -0 0 1 1 2 2 2 1 1 0 -0 -0 -1 -1 -1 -1 -1 -1 -2 -2 -2 -2 -3 -3 -3 -2 -2 -1 -1 -0 0 1 1 1 1 1 0 0 0 0 -0 -0 -0 -1 -1 -1 -1 -1 -1 -1 -1 -2 -2 -2 -2 -2 -1 -1 -1 -1 -1 -1 -1 -1 -1 -1 -1 -1 -1 -1 -1 -1 -1 -1 -1
-1 -1 -0 -0 0 1 1 1 2 2 2 1 0 -0 0 1 1 2 2 1 1 0 -0 -0 -1 -1 -1 -1 -1 -1 -1 -1 -1 -1 -1 -0 -0 0 0 1 1 2 2 2 1 1 1 1 1 0 0 -0 -0 -1 -1 -1 -1 -1 -2 -2 -2 -2 -2 -1 -1 -1 -0 -0 -0 -0 -0 -0 -0 -0 -1 -1 -1 -1 -1 -1 -1 -1 -1 -1 -1 -1
-1 -1 -1 -1 0 1 1 1 2 2 1 1 0 -0 0 -0 -0 -0 -0 0 0 1 0 -0 -0 -1 -1 -1 -1 -0 -0 0 0 1 0 1 1 1 2 2 3 3 3 3 2 2 1 1 0 0 -0 -1 -1 -1 -1 -1 -2 -2 -2 -1 -1 -1 -1 -0 0 0 0 0 0 0 0 -0 -0 -0 -1 -0 -0 -0 -0 -0 -1 -1 -1 -1 -1 -0
-1 -1 -1 -0 0 1 1 2 2 2 2 1 -0 -1 -1 -1 -1 -1 -2 -2 -1 -1 -0 -0 -0 -0 -0 -1 -1 -0 0 1 1 0 0 0 0 1 2 2 3 4 4 3 2 1 1 0 -0 -1 -1 -1 -2 -2 -2 -2 -1 -1 -1 -1 -0 -0 0 0 -0 -0 -1 -1 -1 -1 -1 -2 -2 -1 -1 -1 -1 -0 0 0 -0 -1 -1 -1 -1 -0
-0 -0 -0 -0 0 0 1 1 1 1 0 -1 -3 -3 -3 -2 -2 -2 -2 -2 -2 -1 -1 -1 -1 -1 -0 -0 -0 -0 -0 0 1 1 0 -0 -0 0 1 2 2 3 3 2 1 -0 -1 -1 -2 -2 -2 -2 -2 -2 -1 -1 -1 -1 -0 -0 -0 -0 -0 -1 -1 -1 -1 -1 -1 -1 -1 -1 -1 -1 -1 -1 -1 -1 -1 -1 -1 -2 -1 -1 -1 -1
-0 -0 -0 -1 -0 -0 0 0 -0 -1 -2 -3 -3 -3 -2 -2 -2 -2 -2 -1 -1 -1 -1 -1 -2 -2 -1 0 0 0 0 0 0 1 1 0 -0 0 1 1 1 1 0 -0 -1 -2 -3 -3 -3 -3 -2 -2 -2 -1 -1 -1 -0 -0 -0 -0 -0 -1 -1 -1 -1 -1 -1 -0 -0 -0 0 0 1 0 1 0 0 0 0 0 -0 -0 -0 -1 -1 -1
-1 -1 -1 -1 -1 -0 -0 -0 -1 -2 -2 -2 -2 -2 -2 -2 -2 -2 -2 -1 -1 -1 -0 1 0 -1 -3 -1 0 1 0 -0 -0 0 1 0 0 0 0 0 0 -0 -1 -1 -2 -3 -4 -4 -3 -3 -2 -2 -2 -1 -1 -0 -0 -0 -0 -1 -1 -1 -1 -1 -1 -1 -0 -0 -0 0 0 0 1 1 1 0 1 1 1 0 0 0 0 0 -0 -0
-1 -1 -2 -1 -1 -0 -0 -0 -1 -1 -2 -2 -2 -2 -2 -2 -1 -1 -1 -1 -2 -2 -2 -1 -0 -0 -4 -4 -2 0 1 -0 -1 -0 0 -0 -0 -0 -0 -0 -1 -1 -2 -2 -2 -3 -3 -3 -3 -2 -2 -2 -1 -1 -1 -1 -1 -1 -1 -1 -1 -1 -1 -1 -1 -0 -0 -0 -0 0 -0 -0 -0 -0 -1 -1 -1 -1 -1 -1 -1 -1 -1 -0 -0 -0
-1 -1 -0 -0 -0 -0 0 -0 -1 -1 -1 -1 -1 -1 -1 -1 -0 -0 -1 -1 -2 -2 -2 -2 -2 -1 -0 -2 -5 -5 -1 -1 -1 -1 0 -0 -1 -1 -1 -1 -1 -1 -2 -2 -2 -2 -2 -2 -2 -2 -2 -1 -1 -1 -1 -1 -1 -1 -1 -1 -1 -1 -1 -1 -1 -1 -1 -1 -0 -0 -1 -1 -1 -1 -2 -2 -2 -2 -2 -2 -2 -2 -2 -2 -2 -2
-1 -0 -0 -0 -0 -0 -0 -1 -1 -0 -0 -1 -1 -1 -1 -0 -0 -0 -0 -1 -1 -2 -2 -2 -2 -1 -0 -0 -3 -5 -3 -2 -2 -2 -0 -0 -1 -1 -1 -1 -1 -1 -2 -2 -2 -1 -1 -1 -1 -1 -1 -1 -1 -2 -2 -2 -2 -1 -1 -1 -1 -1 -1 -1 -1 -1 -2 -2 -2 -2 -2 -2 -1 -1 -2 -2 -2 -1 -1 -1 -1 -1 -2 -2 -3 -3
-1 -1 -1 -1 -1 -1 -1 -1 -1 -1 -1 -1 -1 -1 -1 -1 -1 -1 -1 -1 -1 -1 -1 -1 -1 -1 -0 -0 -2 -3 -2 -2 -2 -2 -2 -1 -1 -1 -1 -1 -1 -1 -2 -2 -1 -1 -0 -0 -1 -1 -1 -1 -2 -2 -2 -2 -2 -2 -2 -2 -2 -2 -2 -2 -2 -2 -2 -2 -2 -2 -3 -2 -2 -1 -2 -1 -1 -1 -0 0 0 0 -0 -1 -1 -1
-1 -1 -1 -1 -1 -1 -1 -1 -0 -0 -1 -0 -1 -1 -1 -0 -0 -1 -1 -1 -1 -1 -1 -1 -1 -1 -1 -1 -2 -2 -3 -2 -2 -2 -1 -2 -1 -1 -0 -1 -1 -1 -2 -1 -1 -0 -0 -0 -1 -1 -1 -2 -2 -2 -2 -2 -2 -2 -2 -2 -2 -2 -2 -2 -2 -2 -3 -3 -3 -3 -3 -3 -2 -2 -2 -2 -1 -1 -0 0 1 1 1 1 1 1
-1 -1 -1 -1 -1 -1 -2 -1 -0 0 0 0 -0 -0 -0 -0 -0 -0 -0 -0 -1 -1 -1 -2 -2 -1 -1 -1 -1 -2 -2 -3 -3 -3 -2 -2 -1 -1 -0 -1 -1 -2 -1 -1 -0 -0 -0 -0 -1 -1 -1 -1 -1 -1 -1 -1 -1 -1 -2 -2 -2 -2 -2 -1 -2 -2 -2 -2 -2 -2 -2 -2 -2 -2 -2 -2 -2 -2 -1 -1 0 1 1 1 1 2
-1 -1 -0 -0 -1 -1 -1 -0 0 1 1 0 -0 -0 -1 -1 -1 -1 -1 -1 -1 -1 -1 -1 -1 -1 -0 -0 -1 -1 -1 -2 -2 -2 -2 -2 -1 -0 -0 -1 -2 -2 -1 -0 -0 -0 -0 -1 -1 -1 -0 -0 0 1 1 0 -0 -0 -1 -1 -1 -1 -1 -1 -1 -1 -1 -1 -1 -1 -1 -2 -2 -1 -2 -2 -2 -2 -2 -1 -1 -1 -0 -0 0 0
-0 -0 -1 -1 -1 -1 -1 -1 -0 1 1 1 0 0 -0 -0 -1 -1 -1 -1 -1 -1 -1 -0 0 -0 -1 -1 -1 -1 -1 -1 -1 -1 -2 -2 -2 -1 -1 -1 -1 -1 -1 -0 -0 -0 -0 -1 -1 -1 -0 1 1 2 1 1 1 0 0 0 -0 -0 -0 -0 -0 -0 -0 -1 -1 -0 0 -0 -0 -0 -1 -1 -1 -1 -1 -1 -1 -1 -1 -1 -1 -1
-1 -1 -1 -1 -1 -1 -1 -2 -1 -1 0 1 1 0 0 0 0 -0 -0 -0 -0 0 1 0 -1 -2 -2 -2 -1 -1 -0 -1 -1 -1 -2 -1 -1 -2 -2 -1 -1 -0 0 0 0 0 -0 -1 -1 -0 1 2 2 2 2 1 1 1 1 1 0 0 0 0 0 0 0 0 0 1 1 1 1 1 0 -0 -0 -0 -0 -0 -1 -1 -1 -1 -0 0
-1 -1 -1 -1 -1 -1 -1 -2 -2 -2 -1 -0 -0 -0 -1 -0 -0 -0 -0 0 0 -0 -1 -2 -2 -1 0 -0 -1 -1 -0 -0 -1 -1 -1 -1 -2 -2 -1 -1 -0 0 1 1 1 1 -0 -1 0 1 2 3 3 2 2 2 2 2 1 1 1 1 1 1 1 1 1 1 1 1 2 2 1 1 1 1 0 0 0 0 -0 -1 -1 -0 0 1
-1 -1 -1 -1 -0 -0 -0 -1 -1 -1 -1 -0 -0 -0 -1 -1 -1 -1 -0 -0 -0 -1 -1 -0 1 1 1 0 -0 -0 -1 -1 -1 -1 -1 -2 -2 -2 -0 -0 0 0 1 1 1 -0 -2 -1 0 2 3 3 3 2 3 3 2 2 1 1 1 1 1 1 1 1 1 1 1 1 1 1 1 1 1 1 1 0 0 0 -0 -1 -1 -1 -0 0
-1 -1 -1 -0 -0 0 0 0 -0 -0 -0 0 1 1 0 0 0 0 0 -0 -0 -0 -0 0 1 1 0 0 0 -0 -1 -0 -1 -1 -0 -2 -3 -2 0 0 -0 -0 0 0 -0 -1 -3 -1 0 2 2 2 2 2 2 2 1 1 0 0 0 -0 -0 -0 -0 0 0 -0 -0 -0 -0 0 1 1 1 1 0 0 0 -0 -1 -1 -2 -2 -2 -1
-1 -1 -0 0 0 0 1 1 1 1 1 1 1 1 1 1 1 0 -1 -1 -1 -0 -1 -1 -0 -0 -1 -0 -1 -1 -1 -1 -1 -1 -1 -2 -2 -1 1 -0 -1 -1 -1 -1 -1 -1 -2 -0 1 2 2 2 1 1 0 -0 -1 -1 -1 -1 -1 -2 -2 -2 -2 -2 -1 -1 -1 -1 -1 -1 -0 -0 -0 -0 -0 0 0 0 -0 -1 -2 -2 -3 -3
-0 0 0 1 1 1 1 1 1 1 1 1 1 1 1 1 -0 -1 -1 -0 -0 -1 -1 -1 -1 -1 -1 -1 -2 -2 -2 -1 -1 -1 -1 -2 -1 -0 0 -2 -3 -4 -4 -4 -4 -3 -1 1 1 1 0 0 -1 -2 -3 -3 -3 -3 -3 -3 -3 -3 -3 -3 -3 -3 -2 -2 -2 -2 -1 -1 -1 -1 -1 -1 -1 -0 -0 0 -0 -1 -2 -2 -3 -3
0 1 1 1 1 1 1 1 1 1 1 1 1 1 1 0 -0 -1 -0 -0 -1 -1 -1 -1 -1 -1 -2 -3 -3 -2 -2 -1 -1 -1 -2 -2 -2 -1 -2 -3 -4 -5 -6 -8 -8 -7 -4 -1 0 0 -1 -2 -4 -5 -5 -5 -5 -4 -4 -4 -4 -3 -3 -3 -2 -2 -2 -2 -1 -1 -1 -2 -2 -1 -1 -1 -1 -1 -0 -0 -0 -1 -2 -2 -2 -2
1 1 1 0 0 0 0 0 0 0 0 1 0 0 0 -0 -0 -1 -1 -1 -1 -1 -1 -1 -2 -2 -2 -3 -3 -2 -1 -0 -1 -2 -2 -2 -2 -2 -3 -3 -3 -2 -3 -5 -6 -8 -9 -8 -5 -3 -3 -5 -5 -6 -5 -5 -4 -4 -4 -4 -4 -3 -3 -2 -1 -1 -0 -0 0 0 0 -1 -1 -1 -1 -1 -0 -0 -0 -0 -0 -1 -2 -2 -2 -2
0 0 -0 -0 -0 0 -0 -0 -0 -0 -0 -0 -0 -0 -0 -1 -1 -1 -1 -1 -1 -1 -1 -1 -2 -2 -2 -2 -2 -1 -0 -0 -1 -2 -2 -2 -2 -2 -2 -2 -1 0 1 1 0 -2 -5 -10 -11 -9 -7 -7 -6 -6 -5 -4 -4 -4 -4 -4 -3 -2 -1 -1 -0 0 -0 -0 0 1 1 0 0 -0 0 0 0 1 1 1 1 -0 -1 -1 -2 -2
-0 -0 -0 -0 -0 -0 -0 -0 -0 -0 -0 -1 -1 -1 -1 -1 -1 -1 -1 -1 -1 -1 -1 -1 -1 -1 -1 -1 -1 -0 0 -0 -1 -2 -1 -1 -1 -1 -1 -1 -1 -0 0 0 1 1 0 -4 -8 -10 -10 -8 -6 -5 -4 -4 -4 -4 -4 -3 -3 -2 -1 -0 -0 -0 -1 -1 -1 -0 -0 -0 0 1 1 1 1 1 2 2 2 1 1 0 -0 -1
-0 -0 0 0 0 -0 -0 -0 -0 -0 -1 -1 -1 -1 -1 -1 -1 -1 -1 -1 -1 -0 -0 -0 -0 -0 -0 -1 -1 -0 0 0 -0 -0 -0 -0 -0 -0 -0 -1 -1 -1 -1 -2 -2 -2 -2 -2 -4 -7 -10 -9 -7 -5 -3 -4 -4 -4 -2 -1 -0 -0 0 -1 -2 -2 -2 -1 -1 -1 -1 -1 -0 0 0 1 1 1 1 2 2 2 2 2 1 0
0 0 0 0 0 0 0 -0 -0 -0 -0 -1 -1 -1 -1 -1 -1 -1 -1 -1 -1 -1 -1 -0 -0 -0 -0 -0 -0 -0 0 1 1 1 1 0 0 0 0 -0 -1 -1 -2 -3 -3 -4 -4 -3 -3 -3 -5 -8 -8 -6 -4 -3 -3 -2 -1 1 2 3 3 0 -2 -3 -3 -2 -1 -0 -0 -1 -0 -0 -0 0 0 0 1 1 1 2 2 3 2 2
-0 0 0 0 0 -0 -0 0 0 0 -0 -0 -0 -1 -1 -1 -1 -1 -1 -1 -0 -1 -1 -1 -1 -1 -1 -1 -1 -0 0 1 1 1 1 0 1 0 0 0 -0 -1 -2 -3 -3 -3 -3 -4 -4 -4 -3 -4 -6 -8 -8 -5 -3 -1 1 2 3 4 4 1 -1 -3 -3 -2 -1 -0 -0 -1 -1 -0 0 1 1 0 1 1 1 1 2 3 3 3
-0 -0 0 0 0 0 0 0 0 0 0 0 0 0 0 -0 -0 -0 -0 0 -0 -0 -1 -1 -1 -1 -2 -2 -1 -1 -0 1 1 1 1 0 0 0 0 0 0 -0 -1 -2 -2 -3 -3 -5 -6 -6 -4 -1 -2 -4 -7 -7 -4 -1 1 2 3 4 4 0 -2 -3 -3 -1 -0 0 0 -0 -0 -0 -0 0 -0 -0 -0 0 0 1 2 3 3 3
-0 -0 0 0 0 0 0 1 1 1 1 0 0 0 0 0 0 0 0 0 0 -0 -1 -1 -1 -1 -1 -1 -0 -0 0 0 1 1 1 1 0 -0 -0 -0 0 0 0 -0 -1 -2 -3 -4 -4 -4 -4 -3 -2 -1 0 -1 -0 0 -0 0 2 4 5 0 -3 -4 -3 -2 -1 -0 0 0 -0 -0 -1 -1 -2 -2 -3 -2 -1 0 1 2 3 4
-0 -0 0 0 0 0 0 0 0 1 1 1 1 1 1 1 1 1 0 0 0 -0 0 -0 -0 -0 -0 -0 -0 0 1 1 2 2 2 1 1 0 -1 -1 -1 -1 0 0 -0 -1 -2 -2 -2 -1 -1 -3 -4 -4 -1 1 3 2 -1 -4 -3 0 4 0 -2 -4 -3 -2 -2 -2 -2 -1 -1 -1 -1 -1 -2 -3 -3 -3 -1 0 1 -0 -0 1
-0 0 0 0 0 0 0 0 1 1 0 1 1 2 2 2 1 1 1 1 1 1 1 1 0 0 -0 0 1 1 2 2 2 2 1 1 1 0 -1 -1 -2 -2 -1 -1 -1 -1 -3 -3 -2 -1 1 1 -0 -2 -2 -1 1 3 2 -2 -4 -2 2 0 -2 -3 -3 -2 -2 -2 -2 -1 -1 -1 -1 -1 -1 -0 0 0 1 3 3 1 -1 -3
-0 -0 0 0 0 0 0 1 1 1 0 0 1 1 2 2 1 1 1 1 1 2 2 2 2 2 2 2 3 3 3 3 2 1 0 0 -0 -1 -1 -2 -2 -2 -2 -2 -1 -1 -1 -1 -1 -1 1 1 1 -0 -1 -0 2 4 5 4 2 1 2 1 -0 -2 -3 -3 -2 -1 -1 -1 -2 -2 -2 -2 -1 1 3 4 5 4 3 3 3 1
-0 -0 0 0 0 0 0 1 1 1 0 1 1 1 1 0 0 -0 -1 -1 -0 1 1 1 1 2 3 2 2 2 2 2 1 1 1 2 2 1 0 0 0 -0 -0 -1 -1 -1 0 1 1 1 3 3 2 1 -1 -2 -0 3 6 5 1 -1 -3 -2 -1 -1 -1 -2 -2 -2 -2 -2 -2 -3 -3 -3 -1 1 4 5 6 5 3 2 2 3
-0 0 0 0 0 0 0 1 0 0 -0 0 0 1 1 0 0 -0 -1 -1 0 1 2 2 2 1 0 -2 -2 -1 0 1 1 1 1 1 1 2 2 3 3 4 3 1 -0 -0 0 0 0 1 2 3 2 1 2 -2 -1 1 4 3 1 -1 -2 -4 -4 -3 -1 0 -0 -1 -2 -2 -2 -2 -3 -3 -2 0 4 4 3 2 4 3 1 1
0 0 0 0 -0 -0 -0 -0 -1 -1 -1 -0 0 1 1 1 1 0 1 2 3 4 4 3 1 -2 -6 -7 -6 -4 -1 -0 1 1 0 0 0 -0 -0 1 2 2 2 2 2 1 -1 -2 -1 -0 1 1 1 0 -1 -2 -1 0 3 3 3 4 6 2 -1 -4 -3 -1 -1 -0 -1 -1 -2 -2 -3 -4 -4 -3 1 2 -1 -2 1 1 0 -1
0 0 0 -0 -1 -1 -2 -2 -2 -2 -1 -1 -0 0 1 1 1 1 2 3 3 2 0 -3 -7 -10 -11 -8 -5 -3 -2 -2 -2 -1 -1 -0 0 0 -0 -0 0 1 2 3 4 4 1 -0 -1 -2 -1 -0 -0 -0 -0 -1 -1 -0 2 2 2 3 4 1 -1 -3 -2 -3 -2 -1 -0 -0 -1 -2 -3 -4 -4 -4 -1 -0 -2 -4 -4 -1 0 -1
-0 -0 -1 -1 -2 -2 -2 -2 -2 -2 -2 -1 -1 -0 0 0 0 -0 0 -1 -2 -5 -8 -9 -10 -9 -6 -3 -2 -2 -2 -3 -3 -3 -3 -2 -1 -1 -0 0 0 1 1 3 4 4 3 2 1 -0 -1 -1 -2 -2 0 -0 -0 0 1 1 1 1 0 -1 -1 -1 -1 -2 -2 -1 -0 -0 -0 -0 -1 -1 -2 -2 -1 1 0 -2 -4 -2 0 1
-1 -1 -1 -2 -2 -2 -2 -2 -2 -2 -2 -2 -1 -1 -1 -1 -2 -3 -4 -5 -7 -8 -9 -7 -5 -2 0 1 1 0 -0 -1 -2 -2 -4 -3 -2 -2 -1 -0 0 1 1 2 2 2 3 2 1 1 1 -0 -1 -2 -3 -3 -1 1 2 1 1 0 -0 0 1 0 -1 -1 -1 -1 -3 -3 -3 -2 -2 -2 -2 -2 -2 1 2 2 -0 -3 -2 -0
-1 -1 -1 -2 -2 -2 -2 -2 -2 -2 -2 -1 -1 -1 -1 -2 -3 -4 -6 -6 -6 -5 -4 -3 -1 0 1 1 1 2 2 1 0 -0 -2 -3 -3 -2 -2 -2 -1 -1 -1 -0 0 1 1 1 1 1 1 1 1 0 -2 -4 -2 -0 1 1 1 0 -0 0 0 0 -0 -0 -0 -0 -2 -3 -2 -2 -3 -5 -4 -3 -3 -2 1 4 4 -1 -4 -4
-1 -1 -1 -1 -2 -2 -2 -2 -2 -2 -1 -1 -1 -2 -2 -2 -3 -3 -4 -4 -3 -2 -2 -1 -0 1 1 1 1 1 2 2 1 1 1 -0 -1 -2 -2 -3 -3 -3 -3 -3 -2 -2 -1 0 1 2 2 1 2 2 -0 -2 -2 -0 0 0 0 -1 -2 -2 -1 -0 0 -0 -0 -0 0 -0 1 1 -1 -4 -4 -4 -4 -4 -2 1 6 4 -1 -5
-0 -0 -0 -1 -1 -1 -1 -1 -1 -1 -1 -1 -1 -2 -2 -2 -2 -2 -2 -2 -2 -1 0 1 2 2 2 1 1 1 1 1 1 1 1 0 -0 -1 -2 -3 -4 -5 -5 -5 -5 -5 -4 -2 0 2 4 3 3 3 2 -0 -2 -2 -1 0 -0 -1 -2 -2 -2 -1 -0 -1 -1 -0 1 1 1 1 -1 -2 -3 -3 -4 -4 -4 -2 2 6 4 -1
-0 0 0 -0 -0 -1 -1 -1 -1 -1 -1 -1 -1 -1 -2 -2 -3 -3 -2 -2 -1 0 1 2 3 3 3 2 2 1 2 2 2 1 1 0 -0 -1 -1 -2 -3 -4 -4 -5 -5 -5 -6 -5 -3 -1 2 2 3 3 4 2 -1 -3 -2 -1 -1 -1 -1 -2 -2 -2 -1 -1 -0 -0 -0 1 1 1 1 -0 -1 -2 -4 -4 -4 -3 -3 2 4 2
Height
1376 1376 1377 1378 1378 1379 1379 1379 1379 1379 1379 1379 1379 1380 1380 1380 1380 1381 1381 1381 1381 1381 1381 1381 1381 1381 1381 1380 1380 1380 1380 1380 1380 1380 1380 1380 1380 1380 1379 1379 1379 1379 1379 1379 1378 1378 1378 1378 1378 1377 1377 1377 1376 1376 1376 1375 1375 1375 1374 1374 1374 1373 1373 1373 1372 1372 1371 1371 1371 1370 1370 1370 1369 1369 1368 1368 1368 1367 1367 1367 1367 1367 1367 1368 1368 1368
1376 1377 1377 1378 1378 1379 1379 1379 1379 1379 1379 1379 1380 1380 1380 1380 1381 1381 1381 1381 1381 1381 1381 1381 1381 1380 1380 1380 1380 1380 1380 1380 1380 1380 1380 1379 1379 1379 1379 1378 1378 1378 1377 1377 1377 1377 1376 1376 1376 1376 1375 1375 1375 1374 1374 1374 1373 1373 1372 1372 1372 1371 1371 1370 1370 1370 1370 1369 1369 1368 1368 1367 1367 1366 1366 1365 1365 1365 1365 1364 1364 1365 1365 1365 1365 1365
1377 1377 1378 1378 1379 1379 1379 1379 1380 1380 1380 1380 1380 1380 1380 1381 1381 1381 1381 1381 1381 1381 1381 1381 1381 1380 1380 1380 1380 1380 1380 1380 1380 1379 1379 1379 1378 1378 1378 1377 1377 1376 1376 1375 1375 1375 1375 1375 1375 1374 1374 1374 1373 1373 1372 1372 1371 1371 1371 1370 1370 1370 1369 1369 1368 1368 1367 1367 1366 1366 1366 1365 1365 1364 1364 1363 1363 1362 1362 1362 1362 1362 1362 1362 1362 1362
1378 1378 1379 1379 1379 1379 1380 1380 1380 1380 1380 1380 1380 1381 1381 1381 1381 1381 1381 1381 1381 1381 1381 1381 1380 1380 1380 1380 1380 1380 1380 1379 1379 1378 1378 1378 1377 1377 1376 1376 1375 1375 1375 1375 1374 1374 1374 1374 1373 1373 1372 1372 1371 1371 1371 1370 1370 1369 1369 1368 1368 1367 1367 1366 1366 1365 1365 1365 1364 1364 1363 1363 1362 1362 1361 1361 1360 1360 1360 1360 1360 1360 1360 1360 1360 1360
1379 1379 1379 1379 1380 1380 1380 1380 1380 1381 1381 1381 1381 1381 1381 1381 1381 1381 1381 1381 1381 1381 1380 1380 1380 1380 1380 1380 1379 1379 1379 1378 1378 1377 1377 1376 1376 1375 1375 1375 1374 1374 1374 1374 1374 1373 1373 1372 1372 1371 1371 1370 1370 1369 1369 1368 1368 1367 1367 1366 1365 1365 1364 1364 1363 1363 1362 1362 1361 1361 1360 1360 1360 1359 1359 1358 1358 1357 1357 1357 1357 1357 1357 1356 1356 1356
1380 1380 1380 1380 1380 1381 1381 1381 1381 1382 1382 1382 1382 1382 1382 1381 1381 1381 1381 1381 1380 1380 1380 1380 1380 1379 1379 1379 1378 1378 1377 1377 1376 1376 1376 1375 1375 1375 1374 1374 1374 1373 1373 1373 1372 1372 1371 1371 1370 1370 1369 1368 1368 1367 1367 1366 1365 1365 1364 1364 1363 1362 1362 1361 1360 1360 1360 1359 1359 1358 1358 1357 1357 1356 1355 1355 1355 1354 1354 1354 1354 1353 1353 1353 1353 1353
1381 1381 1381 1381 1381 1382 1382 1382 1382 1383 1383 1383 1383 1382 1382 1382 1382 1381 1381 1381 1380 1380 1380 1379 1379 1379 1378 1378 1377 1377 1377 1376 1376 1375 1375 1375 1374 1374 1374 1373 1373 1372 1372 1371 1371 1370 1370 1369 1368 1367 1367 1366 1365 1365 1364 1364 1363 1362 1361 1361 1360 1360 1359 1358 1358 1357 1357 1356 1355 1355 1355 1354 1353 1353 1352 1352 1351 1351 1351 1350 1350 1350 1350 1350 1350 1350
1382 1382 1382 1382 1383 1383 1383 1383 1383 1383 1384 1384 1383 1383 1382 1382 1382 1381 1381 1381 1380 1380 1380 1379 1379 1379 1378 1378 1377 1377 1376 1376 1375 1375 1375 1374 1374 1373 1373 1372 1372 1371 1370 1370 1369 1368 1367 1367 1366 1365 1365 1364 1363 1362 1362 1361 1360 1360 1359 1358 1358 1357 1356 1356 1355 1355 1354 1353 1353 1352 1351 1351 1350 1350 1349 1349 1348 1348 1347 1347 1347 1347 1347 1347 1347 1347
1384 1384 1384 1384 1384 1384 1384 1384 1384 1384 1384 1384 1384 1383 1383 1383 1382 1382 1381 1381 1380 1380 1380 1379 1379 1379 1378 1377 1377 1376 1376 1375 1375 1375 1374 1373 1373 1372 1372 1371 1370 1370 1369 1368 1367 1366 1365 1365 1364 1363 1362 1361 1361 1360 1359 1359 1358 1357 1357 1356 1355 1355 1354 1353 1352 1352 1351 1350 1350 1349 1348 1348 1347 1347 1346 1345 1345 1345 1344 1344 1344 1344 1344 1343 1343 1344
1385 1385 1385 1385 1385 1385 1385 1385 1384 1384 1384 1384 1384 1383 1383 1383 1382 1382 1382 1381 1381 1380 1380 1379 1379 1378 1378 1377 1376 1376 1375 1375 1374 1374 1373 1373 1372 1371 1371 1370 1369 1368 1367 1366 1365 1364 1364 1363 1362 1361 1360 1360 1359 1358 1357 1357 1356 1355 1355 1354 1353 1352 1351 1351 1350 1349 1349 1348 1347 1346 1346 1345 1345 1344 1343 1343 1342 1342 1341 1341 1341 1341 1341 1341 1341 1341
1386 1386 1386 1386 1386 1385 1385 1385 1385 1384 1384 1384 1384 1384 1383 1383 1382 1382 1381 1381 1380 1380 1380 1379 1378 1378 1377 1376 1376 1375 1375 1374 1374 1373 1372 1371 1371 1370 1370 1369 1368 1367 1366 1365 1364 1363 1362 1361 1360 1360 1359 1358 1357 1356 1356 1355 1354 1353 1353 1352 1351 1350 1349 1349 1348 1347 1346 1345 1345 1344 1344 1343 1343 1342 1341 1341 1340 1340 1340 1340 1339 1339 1339 1339 1339 1339
1387 1387 1387 1387 1386 1386 1386 1385 1385 1385 1384 1384 1384 1383 1383 1383 1382 1381 1381 1380 1380 1379 1379 1378 1378 1377 1376 1376 1375 1375 1374 1373 1372 1372 1371 1370 1370 1369 1368 1367 1366 1365 1364 1363 1362 1361 1360 1360 1359 1358 1357 1356 1355 1355 1354 1353 1352 1351 1351 1350 1349 1348 1347 1346 1346 1345 1344 1344 1343 1343 1342 1341 1341 1340 1340 1339 1339 1338 1338 1338 1337 1337 1337 1337 1337 1337
1388 1388 1388 1387 1387 1387 1386 1385 1385 1385 1384 1384 1383 1383 1382 1382 1382 1381 1380 1380 1379 1379 1378 1377 1377 1376 1375 1375 1374 1373 1373 1372 1371 1370 1370 1369 1368 1367 1366 1365 1365 1364 1363 1362 1360 1360 1359 1358 1357 1356 1355 1355 1354 1353 1352 1351 1350 1350 1349 1348 1347 1346 1345 1345 1344 1343 1343 1342 1341 1341 1340 1340 1339 1338 1338 1337 1337 1336 1336 1335 1335 1335 1335 1335 1334 1334
1389 1389 1388 1388 1388 1387 1386 1386 1385 1385 1384 1384 1383 1383 1382 1382 1381 1381 1380 1380 1379 1378 1378 1377 1376 1375 1374 1374 1373 1372 1372 1371 1370 1370 1369 1368 1367 1366 1365 1364 1363 1362 1361 1360 1359 1358 1357 1356 1355 1354 1353 1353 1352 1351 1350 1350 1349 1348 1347 1346 1345 1345 1344 1343 1343 1342 1341 1341 1340 1339 1339 1338 1337 1336 1336 1335 1335 1334 1334 1333 1333 1332 1332 1332 1332 1332
1390 1390 1389 1388 1388 1387 1386 1386 1385 1385 1384 1384 1384 1383 1382 1382 1381 1380 1380 1379 1378 1378 1377 1376 1375 1374 1373 1372 1372 1371 1370 1370 1369 1368 1367 1366 1365 1365 1364 1363 1361 1360 1359 1358 1357 1356 1355 1354 1353 1353 1352 1351 1350 1350 1349 1348 1347 1346 1345 1345 1344 1343 1343 1342 1341 1340 1340 1339 1338 1338 1337 1336 1335 1335 1334 1334 1333 1332 1332 1331 1331 1330 1330 1330 1330 1330
1390 1390 1389 1389 1388 1387 1387 1386 1385 1385 1385 1384 1384 1383 1382 1382 1381 1380 1379 1378 1378 1377 1376 1375 1374 1373 1372 1371 1370 1370 1369 1368 1368 1367 1366 1365 1364 1364 1363 1361 1360 1359 1358 1357 1356 1355 1354 1353 1352 1351 1350 1350 1349 1348 1347 1347 1346 1345 1345 1344 1343 1342 1341 1341 1340 1339 1339 1338 1337 1336 1335 1335 1334 1334 1333 1332 1332 1331 1330 1330 1329 1329 1329 1328 1328 1328
1391 1390 1389 1389 1388 1387 1387 1386 1386 1385 1385 1384 1384 1383 1382 1381 1380 1380 1379 1378 1377 1376 1375 1374 1373 1372 1371 1370 1369 1368 1368 1367 1366 1365 1365 1364 1363 1362 1361 1360 1359 1358 1356 1355 1355 1354 1353 1352 1351 1350 1350 1349 1348 1347 1347 1346 1345 1345 1344 1343 1342 1341 1341 1340 1339 1338 1338 1337 1336 1335 1335 1334 1333 1332 1332 1331 1330 1330 1329 1329 1328 1328 1327 1327 1326 1326
1391 1390 1390 1389 1388 1388 1387 1387 1386 1385 1385 1384 1383 1382 1381 1381 1380 1379 1378 1377 1376 1375 1374 1373 1372 1371 1371 1370 1369 1368 1367 1366 1365 1365 1364 1363 1362 1361 1360 1359 1358 1357 1355 1355 1354 1353 1352 1351 1350 1350 1349 1348 1348 1347 1346 1345 1345 1344 1343 1342 1341 1341 1340 1339 1338 1338 1337 1336 1335 1334 1334 1333 1332 1331 1331 1330 1330 1329 1328 1328 1327 1326 1326 1325 1325 1325
1391 1390 1390 1389 1388 1388 1387 1387 1386 1385 1384 1384 1383 1382 1381 1380 1379 1378 1377 1376 1375 1375 1374 1373 1372 1371 1370 1370 1369 1368 1367 1366 1365 1364 1363 1362 1361 1360 1360 1358 1357 1356 1355 1354 1353 1353 1352 1351 1350 1350 1349 1348 1347 1346 1346 1345 1344 1344 1343 1342 1341 1340 1339 1338 1338 1337 1336 1335 1334 1333 1332 1332 1331 1330 1330 1329 1329 1328 1327 1327 1326 1325 1325 1324 1324 1323
1391 1391 1390 1389 1389 1388 1387 1386 1385 1385 1384 1383 1382 1381 1380 1380 1379 1378 1377 1376 1375 1374 1373 1372 1371 1371 1370 1369 1368 1367 1366 1365 1364 1363 1362 1361 1360 1360 1359 1358 1356 1355 1354 1354 1353 1352 1352 1351 1350 1350 1349 1348 1347 1346 1345 1345 1344 1343 1342 1341 1340 1340 1339 1338 1337 1336 1335 1334 1333 1332 1331 1331 1330 1329 1329 1328 1327 1327 1326 1325 1325 1324 1324 1323 1323 1322
1391 1390 1390 1389 1388 1388 1387 1386 1385 1385 1384 1383 1382 1381 1380 1379 1378 1377 1376 1375 1375 1374 1373 1372 1371 1371 1370 1369 1368 1367 1366 1365 1364 1362 1361 1360 1360 1359 1359 1357 1356 1355 1354 1354 1353 1352 1352 1351 1350 1350 1349 1348 1347 1346 1345 1345 1344 1343 1342 1341 1340 1339 1338 1337 1336 1335 1334 1333 1332 1331 1330 1330 1329 1328 1328 1327 1326 1325 1325 1324 1324 1323 1323 1322 1321 1321
1391 1390 1390 1389 1388 1387 1387 1386 1385 1385 1384 1383 1382 1381 1380 1379 1378 1377 1376 1375 1374 1374 1373 1372 1371 1370 1370 1369 1368 1366 1365 1364 1363 1362 1361 1360 1360 1359 1358 1357 1356 1355 1354 1354 1353 1352 1352 1351 1350 1350 1349 1348 1347 1346 1345 1345 1344 1343 1341 1340 1340 1338 1337 1336 1335 1334 1333 1332 1331 1330 1330 1329 1328 1327 1327 1326 1325 1324 1324 1323 1322 1322 1321 1320 1320 1320
1391 1391 1390 1389 1388 1387 1386 1386 1385 1384 1384 1383 1381 1380 1380 1379 1378 1377 1376 1375 1374 1373 1373 1372 1371 1370 1369 1368 1367 1366 1365 1364 1363 1362 1361 1360 1359 1359 1358 1357 1356 1355 1355 1354 1353 1352 1351 1351 1350 1350 1349 1348 1347 1347 1346 1345 1344 1342 1341 1340 1339 1338 1337 1336 1335 1334 1333 1332 1331 1330 1329 1328 1327 1327 1326 1325 1324 1323 1322 1322 1321 1320 1320 1319 1318 1318
1392 1391 1390 1389 1388 1387 1386 1385 1385 1384 1383 1382 1381 1380 1379 1378 1377 1376 1375 1375 1374 1373 1372 1371 1370 1369 1368 1367 1367 1366 1365 1364 1363 1362 1361 1360 1359 1358 1358 1357 1356 1355 1355 1354 1353 1352 1351 1351 1350 1350 1349 1349 1348 1347 1345 1345 1343 1342 1341 1340 1339 1338 1337 1336 1335 1334 1333 1331 1330 1330 1329 1328 1327 1326 1325 1324 1323 1322 1321 1320 1320 1319 1318 1317 1317 1316
1392 1391 1390 1389 1388 1387 1386 1385 1384 1383 1382 1381 1380 1380 1379 1378 1377 1376 1375 1374 1373 1372 1371 1370 1369 1369 1369 1368 1367 1366 1365 1364 1363 1362 1361 1360 1359 1359 1358 1357 1356 1355 1355 1354 1354 1353 1352 1351 1351 1350 1350 1349 1348 1347 1346 1345 1344 1343 1341 1340 1340 1338 1337 1336 1335 1334 1332 1331 1330 1329 1328 1327 1326 1325 1324 1323 1322 1321 1320 1320 1319 1318 1317 1316 1315 1315
1392 1391 1390 1389 1388 1387 1386 1385 1384 1383 1382 1381 1380 1379 1378 1377 1376 1375 1375 1374 1373 1372 1371 1370 1370 1370 1369 1368 1367 1367 1365 1365 1364 1363 1362 1360 1359 1359 1358 1357 1356 1356 1355 1355 1354 1353 1352 1352 1351 1351 1350 1350 1348 1347 1346 1345 1344 1343 1342 1341 1340 1338 1337 1336 1335 1334 1332 1331 1330 1329 1328 1327 1326 1325 1324 1322 1321 1320 1319 1318 1317 1316 1315 1315 1314 1313
1392 1391 1390 1389 1388 1387 1386 1385 1384 1383 1382 1381 1380 1379 1378 1377 1376 1375 1374 1373 1372 1371 1371 1370 1370 1369 1369 1368 1368 1367 1366 1365 1364 1363 1362 1361 1360 1359 1359 1358 1357 1356 1355 1355 1354 1353 1352 1352 1352 1352 1351 1350 1348 1347 1346 1345 1344 1343 1342 1341 1340 1338 1337 1336 1335 1333 1332 1331 1330 1329 1327 1326 1325 1324 1323 1322 1321 1320 1319 1318 1316 1315 1314 1313 1312 1311
1392 1390 1390 1389 1388 1387 1386 1385 1384 1383 1382 1381 1380 1379 1378 1377 1376 1375 1374 1373 1372 1371 1370 1370 1370 1369 1369 1368 1368 1368 1367 1366 1365 1364 1363 1361 1360 1360 1359 1358 1357 1356 1355 1355 1354 1354 1353 1353 1353 1352 1351 1350 1349 1347 1346 1345 1344 1343 1342 1341 1340 1338 1337 1336 1335 1333 1332 1331 1329 1328 1327 1326 1325 1324 1322 1321 1320 1319 1318 1317 1315 1314 1313 1312 1311 1310
1391 1390 1390 1389 1387 1386 1385 1385 1384 1383 1382 1381 1380 1379 1378 1377 1376 1375 1374 1373 1372 1371 1370 1370 1370 1369 1369 1368 1368 1368 1367 1366 1365 1364 1363 1362 1361 1360 1360 1359 1358 1357 1355 1354 1354 1354 1354 1354 1353 1352 1351 1350 1349 1347 1346 1345 1344 1343 1342 1340 1339 1338 1337 1335 1334 1333 1331 1330 1329 1328 1326 1325 1324 1323 1321 1320 1319 1318 1317 1316 1315 1314 1312 1311 1310 1310
1392 1390 1390 1389 1388 1386 1385 1385 1384 1383 1382 1381 1380 1379 1378 1377 1376 1375 1374 1373 1372 1372 1371 1370 1370 1370 1369 1368 1368 1368 1368 1366 1365 1364 1363 1362 1362 1361 1360 1360 1358 1357 1356 1355 1354 1353 1353 1353 1353 1352 1351 1350 1349 1348 1346 1345 1344 1343 1341 1340 1339 1338 1336 1335 1333 1332 1331 1330 1328 1327 1326 1324 1323 1322 1321 1320 1318 1317 1316 1315 1314 1313 1312 1310 1310 1309
1392 1391 1390 1389 1388 1386 1385 1385 1383 1382 1381 1380 1380 1379 1378 1377 1376 1375 1375 1374 1373 1372 1372 1371 1371 1370 1370 1369 1369 1369 1368 1367 1366 1365 1364 1363 1363 1362 1360 1360 1359 1358 1357 1356 1355 1355 1353 1353 1352 1352 1351 1350 1349 1348 1347 1345 1344 1343 1341 1340 1339 1337 1336 1334 1333 1331 1330 1329 1328 1326 1325 1324 1322 1321 1320 1319 1318 1316 1315 1315 1314 1312 1311 1310 1309 1308
1392 1391 1390 1389 1388 1387 1385 1385 1383 1382 1381 1380 1379 1378 1378 1377 1376 1375 1375 1374 1374 1373 1372 1372 1371 1371 1370 1370 1370 1369 1369 1367 1366 1366 1365 1364 1363 1362 1361 1360 1359 1359 1358 1358 1358 1357 1356 1354 1352 1351 1351 1350 1349 1348 1347 1346 1345 1343 1341 1340 1338 1337 1335 1334 1332 1331 1330 1328 1327 1325 1325 1323 1322 1320 1319 1318 1317 1316 1315 1314 1313 1312 1311 1309 1308 1307
1392 1391 1390 1389 1388 1387 1385 1385 1383 1382 1381 1380 1379 1378 1377 1377 1376 1376 1375 1375 1374 1374 1373 1373 1372 1372 1371 1370 1370 1370 1369 1368 1367 1366 1365 1364 1363 1362 1361 1361 1360 1360 1359 1359 1359 1358 1357 1356 1354 1352 1351 1350 1349 1348 1347 1346 1345 1343 1341 1340 1338 1336 1335 1334 1332 1331 1329 1328 1326 1325 1324 1322 1321 1320 1319 1318 1316 1315 1315 1314 1313 1311 1310 1309 1308 1306
1393 1391 1390 1389 1388 1387 1386 1385 1383 1382 1381 1380 1379 1378 1377 1377 1376 1376 1376 1375 1375 1374 1374 1373 1373 1372 1372 1371 1370 1370 1369 1369 1368 1367 1366 1365 1364 1363 1362 1361 1361 1360 1360 1359 1359 1358 1358 1356 1355 1353 1351 1350 1349 1349 1347 1346 1345 1343 1341 1340 1338 1337 1335 1334 1332 1331 1329 1328 1326 1325 1323 1322 1321 1320 1319 1317 1316 1315 1314 1313 1312 1311 1310 1309 1307 1306
1393 1392 1390 1389 1388 1387 1386 1385 1384 1382 1381 1380 1380 1379 1378 1377 1377 1376 1376 1376 1375 1375 1374 1374 1374 1373 1373 1372 1371 1370 1370 1369 1369 1367 1366 1365 1365 1364 1363 1362 1361 1361 1360 1360 1359 1358 1357 1356 1355 1354 1352 1350 1349 1349 1347 1346 1344 1343 1341 1340 1339 1337 1336 1334 1333 1331 1329 1328 1326 1325 1323 1322 1321 1320 1319 1317 1316 1315 1314 1313 1312 1311 1310 1309 1307 1306
1393 1392 1390 1389 1388 1387 1386 1385 1384 1383 1382 1381 1380 1380 1379 1378 1378 1377 1377 1376 1376 1375 1375 1375 1374 1374 1373 1373 1372 1371 1370 1370 1369 1368 1367 1366 1365 1364 1364 1363 1362 1362 1361 1360 1360 1359 1358 1357 1355 1355 1353 1351 1350 1348 1347 1345 1344 1343 1341 1340 1339 1338 1336 1335 1333 1331 1330 1328 1326 1325 1324 1322 1321 1320 1319 1317 1316 1315 1314 1313 1311 1310 1309 1308 1307 1306
1393 1391 1390 1389 1388 1387 1386 1385 1384 1383 1382 1382 1381 1380 1380 1379 1379 1378 1378 1377 1377 1376 1376 1375 1375 1375 1374 1373 1373 1372 1371 1370 1369 1368 1367 1367 1366 1365 1365 1364 1363 1363 1362 1361 1360 1360 1358 1357 1356 1355 1353 1352 1351 1349 1346 1345 1344 1343 1341 1340 1339 1338 1336 1335 1333 1331 1330 1328 1327 1325 1324 1323 1321 1320 1319 1317 1316 1315 1314 1313 1311 1310 1309 1308 1306 1305
1393 1391 1390 1390 1388 1387 1386 1386 1385 1384 1383 1383 1382 1381 1380 1380 1380 1379 1379 1378 1378 1377 1377 1376 1376 1375 1375 1374 1373 1372 1371 1370 1370 1369 1368 1368 1367 1366 1365 1365 1364 1363 1363 1362 1361 1360 1359 1358 1356 1355 1354 1352 1351 1350 1348 1345 1344 1343 1342 1341 1340 1338 1337 1335 1333 1331 1330 1328 1327 1326 1325 1323 1322 1320 1319 1318 1316 1315 1314 1312 1311 1310 1309 1307 1306 1305
1393 1392 1391 1390 1389 1388 1387 1386 1386 1385 1385 1384 1383 1382 1382 1381 1380 1380 1380 1379 1379 1378 1378 1377 1377 1376 1375 1375 1374 1373 1372 1371 1370 1370 1369 1369 1368 1367 1366 1365 1365 1364 1363 1362 1361 1360 1360 1359 1357 1356 1354 1353 1351 1350 1348 1346 1345 1344 1342 1340 1339 1338 1337 1335 1333 1332 1330 1329 1327 1326 1325 1323 1322 1321 1319 1318 1316 1315 1314 1313 1311 1310 1309 1307 1305 1304
1394 1393 1392 1391 1390 1389 1389 1388 1387 1386 1385 1385 1384 1384 1383 1382 1381 1381 1380 1380 1380 1379 1379 1378 1377 1377 1376 1375 1375 1374 1373 1372 1371 1371 1370 1369 1368 1367 1366 1365 1365 1364 1363 1362 1361 1360 1360 1359 1358 1356 1355 1354 1352 1350 1349 1347 1345 1344 1342 1340 1339 1338 1337 1335 1334 1332 1331 1329 1328 1326 1325 1324 1322 1321 1320 1318 1317 1316 1315 1314 1312 1311 1309 1307 1305 1304
1395 1394 1394 1392 1391 1390 1390 1389 1388 1387 1386 1386 1385 1385 1384 1383 1382 1382 1381 1381 1380 1380 1380 1379 1378 1377 1377 1376 1376 1375 1374 1373 1372 1371 1370 1369 1368 1368 1367 1365 1365 1364 1363 1362 1361 1361 1360 1359 1358 1357 1355 1354 1353 1351 1350 1348 1346 1345 1343 1342 1340 1339 1337 1336 1334 1333 1331 1330 1328 1327 1325 1324 1323 1321 1320 1318 1317 1316 1315 1315 1313 1311 1310 1308 1306 1305
1396 1395 1395 1394 1393 1392 1391 1390 1389 1388 1387 1387 1386 1385 1385 1384 1383 1382 1382 1381 1381 1380 1380 1379 1379 1378 1378 1377 1376 1375 1375 1373 1372 1371 1370 1370 1369 1368 1367 1366 1365 1364 1364 1363 1362 1361 1360 1360 1359 1357 1356 1355 1353 1352 1350 1348 1347 1345 1344 1342 1341 1339 1337 1336 1334 1333 1331 1330 1329 1327 1326 1325 1323 1321 1320 1319 1318 1317 1316 1315 1314 1312 1310 1308 1307 1305
1398 1397 1396 1395 1394 1393 1392 1391 1390 1389 1388 1387 1387 1386 1385 1385 1384 1383 1382 1382 1381 1381 1380 1380 1379 1379 1378 1377 1376 1375 1374 1373 1372 1372 1371 1370 1369 1369 1368 1367 1366 1365 1365 1363 1362 1361 1361 1360 1359 1358 1357 1355 1354 1353 1351 1349 1347 1345 1344 1343 1341 1339 1337 1336 1335 1333 1331 1330 1329 1327 1326 1325 1324 1322 1321 1320 1318 1317 1316 1315 1314 1312 1310 1309 1307 1305
1400 1399 1398 1397 1395 1395 1393 1392 1391 1390 1389 1388 1388 1387 1386 1385 1385 1384 1383 1383 1382 1382 1381 1380 1380 1379 1378 1377 1376 1375 1374 1374 1373 1372 1371 1370 1369 1368 1368 1367 1366 1365 1365 1364 1363 1362 1361 1360 1359 1358 1357 1356 1355 1353 1351 1350 1348 1346 1345 1344 1342 1341 1340 1338 1336 1334 1332 1330 1329 1327 1326 1325 1324 1322 1321 1320 1319 1318 1316 1315 1314 1312 1311 1309 1308 1306
1401 1400 1399 1398 1397 1395 1394 1393 1392 1391 1390 1390 1389 1388 1387 1387 1386 1385 1385 1384 1384 1383 1382 1381 1380 1380 1379 1377 1376 1375 1375 1374 1373 1372 1371 1370 1370 1369 1368 1367 1366 1365 1365 1364 1363 1362 1361 1360 1359 1358 1357 1356 1355 1354 1352 1350 1348 1346 1345 1344 1343 1342 1340 1339 1337 1335 1333 1331 1329 1328 1326 1325 1324 1323 1321 1320 1319 1318 1317 1315 1314 1313 1311 1310 1308 1307
1403 1402 1400 1399 1398 1397 1396 1395 1393 1392 1391 1390 1390 1389 1389 1388 1387 1386 1386 1385 1385 1384 1384 1382 1381 1380 1379 1378 1377 1376 1375 1374 1373 1372 1371 1370 1370 1369 1368 1367 1366 1365 1364 1364 1363 1363 1362 1361 1360 1358 1357 1356 1355 1354 1352 1350 1349 1347 1345 1344 1343 1342 1340 1339 1337 1335 1334 1332 1330 1329 1327 1325 1324 1323 1322 1321 1320 1319 1317 1316 1315 1313 1312 1310 1309 1308
1404 1403 1402 1400 1400 1398 1397 1396 1395 1394 1393 1392 1391 1390 1390 1389 1388 1388 1387 1386 1386 1385 1384 1382 1381 1380 1380 1379 1378 1377 1376 1375 1374 1373 1372 1371 1370 1369 1368 1367 1366 1365 1365 1364 1363 1363 1362 1361 1360 1359 1357 1356 1355 1354 1352 1351 1349 1348 1346 1345 1344 1342 1341 1340 1338 1336 1335 1333 1331 1330 1327 1325 1324 1323 1322 1321 1320 1319 1318 1316 1315 1314 1313 1311 1310 1309
1406 1405 1403 1402 1401 1400 1399 1397 1396 1395 1394 1393 1392 1392 1391 1390 1389 1389 1388 1387 1386 1385 1384 1383 1382 1381 1380 1380 1379 1378 1377 1376 1375 1374 1373 1371 1370 1369 1368 1367 1366 1365 1365 1364 1363 1363 1362 1361 1360 1359 1358 1357 1355 1354 1353 1351 1350 1348 1347 1345 1344 1343 1341 1340 1339 1337 1335 1334 1332 1330 1328 1327 1325 1324 1323 1322 1320 1319 1318 1317 1316 1315 1314 1312 1311 1310
1407 1406 1405 1403 1402 1401 1400 1399 1398 1396 1395 1395 1394 1393 1392 1391 1390 1390 1389 1388 1387 1385 1384 1383 1382 1382 1381 1380 1380 1378 1378 1377 1376 1375 1374 1372 1371 1370 1368 1367 1366 1365 1365 1364 1363 1363 1362 1361 1360 1359 1358 1357 1356 1355 1353 1351 1350 1349 1347 1346 1345 1343 1342 1340 1339 1337 1336 1335 1333 1331 1330 1328 1327 1325 1324 1322 1321 1320 1319 1317 1316 1315 1314 1313 1312 1311
1408 1407 1406 1405 1404 1402 1401 1400 1399 1398 1397 1396 1395 1394 1393 1392 1391 1390 1390 1388 1387 1386 1385 1384 1383 1382 1382 1381 1380 1379 1378 1377 1376 1375 1374 1373 1371 1370 1369 1367 1366 1365 1365 1364 1363 1362 1362 1361 1360 1360 1359 1358 1356 1355 1353 1352 1350 1349 1347 1346 1345 1343 1342 1340 1339 1338 1336 1335 1333 1332 1330 1329 1327 1326 1324 1323 1322 1320 1319 1318 1316 1315 1314 1314 1313 1312
1410 1408 1407 1406 1405 1404 1403 1401 1400 1399 1398 1397 1396 1395 1394 1393 1392 1391 1390 1389 1387 1386 1385 1385 1384 1383 1383 1381 1380 1380 1379 1378 1376 1375 1374 1373 1371 1370 1369 1368 1367 1366 1365 1364 1363 1363 1362 1361 1361 1360 1359 1358 1356 1355 1354 1352 1350 1349 1347 1346 1345 1344 1342 1341 1339 1338 1337 1335 1334 1332 1330 1329 1328 1326 1325 1324 1322 1321 1319 1318 1317 1316 1315 1314 1313 1312